Time,TemperatureF,DewpointF,PressureIn,WindDirection,WindDirectionDegrees,WindSpeedMPH,WindSpeedGustMPH,Humidity,HourlyPrecipIn,Conditions,Clouds,dailyrainin,SolarRadiationWatts/m^2,SoftwareType,DateUTC
2013-04-19 00:01:00,39.4,27.1,30.22,NW,320,2.0,4.0,61,0.00,,---,0.00,0.00,VWS V14.01,2013-04-19 05:01:00,
2013-04-19 00:06:00,39.7,27.0,30.22,NW,316,7.0,10.0,60,0.00,,---,0.00,0.00,VWS V14.01,2013-04-19 05:06:00,
2013-04-19 00:11:00,40.2,26.6,30.22,NW,315,6.0,10.0,58,0.00,,---,0.00,0.00,VWS V14.01,2013-04-19 05:11:00,
2013-04-19 00:16:00,40.6,26.6,30.22,NW,313,6.0,10.0,57,0.00,,---,0.00,0.00,VWS V14.01,2013-04-19 05:16:00,
2013-04-19 00:21:00,40.9,26.4,30.22,NW,309,6.0,10.0,56,0.00,,---,0.00,0.00,VWS V14.01,2013-04-19 05:21:00,
2013-04-19 00:26:00,41.1,26.2,30.22,NW,306,4.0,10.0,55,0.00,,---,0.00,0.00,VWS V14.01,2013-04-19 05:26:00,
2013-04-19 00:31:00,41.3,25.9,30.22,NW,308,6.0,6.0,54,0.00,,---,0.00,0.00,VWS V14.01,2013-04-19 05:31:00,
2013-04-19 00:36:00,41.2,26.3,30.22,NW,311,6.0,9.0,55,0.00,,---,0.00,0.00,VWS V14.01,2013-04-19 05:36:00,
2013-04-19 00:41:00,41.1,26.6,30.22,NW,313,6.0,9.0,56,0.00,,---,0.00,0.00,VWS V14.01,2013-04-19 05:41:00,
2013-04-19 00:46:00,40.8,26.3,30.22,NW,312,6.0,9.0,56,0.00,,---,0.00,0.00,VWS V14.01,2013-04-19 05:46:00,
2013-04-19 00:51:00,40.5,26.0,30.23,NW,310,4.0,9.0,56,0.00,,---,0.00,0.00,VWS V14.01,2013-04-19 05:51:00,
2013-04-19 00:56:00,40.2,26.2,30.23,NW,309,6.0,9.0,57,0.00,,---,0.00,0.00,VWS V14.01,2013-04-19 05:56:00,
2013-04-19 01:01:00,40.1,25.7,30.23,NW,311,6.0,6.0,56,0.00,,---,0.00,0.00,VWS V14.01,2013-04-19 06:01:00,
2013-04-19 01:06:00,40.0,26.0,30.23,NW,308,7.0,8.0,57,0.00,,---,0.00,0.00,VWS V14.01,2013-04-19 06:06:00,
2013-04-19 01:11:00,39.9,25.9,30.23,NW,309,6.0,9.0,57,0.00,,---,0.00,0.00,VWS V14.01,2013-04-19 06:11:00,
2013-04-19 01:16:00,39.8,25.8,30.23,NW,309,5.0,9.0,57,0.00,,---,0.00,0.00,VWS V14.01,2013-04-19 06:16:00,
2013-04-19 01:21:00,39.8,25.8,30.23,NW,309,4.0,9.0,57,0.00,,---,0.00,0.00,VWS V14.01,2013-04-19 06:21:00,
2013-04-19 01:26:00,39.8,25.8,30.23,NW,314,8.0,9.0,57,0.00,,---,0.00,0.00,VWS V14.01,2013-04-19 06:26:00,
2013-04-19 01:31:00,39.8,25.4,30.23,WNW,301,5.0,6.0,56,0.00,,---,0.00,0.00,VWS V14.01,2013-04-19 06:31:00,
2013-04-19 01:36:00,39.8,25.4,30.23,WNW,300,4.0,9.0,56,0.00,,---,0.00,0.00,VWS V14.01,2013-04-19 06:36:00,
2013-04-19 01:41:00,39.8,25.8,30.23,WNW,302,4.0,10.0,57,0.00,,---,0.00,0.00,VWS V14.01,2013-04-19 06:41:00,
2013-04-19 01:46:00,39.7,25.7,30.23,WNW,302,6.0,12.0,57,0.00,,---,0.00,0.00,VWS V14.01,2013-04-19 06:46:00,
2013-04-19 01:51:00,39.6,25.6,30.23,WNW,300,6.0,12.0,57,0.00,,---,0.00,0.00,VWS V14.01,2013-04-19 06:51:00,
2013-04-19 01:56:00,39.6,25.6,30.23,WNW,300,8.0,12.0,57,0.00,,---,0.00,0.00,VWS V14.01,2013-04-19 06:56:00,
2013-04-19 02:01:00,39.7,25.3,30.23,NW,304,7.0,8.0,56,0.00,,---,0.00,0.00,VWS V14.01,2013-04-19 07:01:00,
2013-04-19 02:06:00,39.8,25.0,30.23,WNW,303,5.0,10.0,55,0.00,,---,0.00,0.00,VWS V14.01,2013-04-19 07:06:00,
2013-04-19 02:11:00,39.8,25.0,30.23,NW,305,5.0,11.0,55,0.00,,---,0.00,0.00,VWS V14.01,2013-04-19 07:11:00,
2013-04-19 02:16:00,39.9,25.1,30.23,NW,306,4.0,12.0,55,0.00,,---,0.00,0.00,VWS V14.01,2013-04-19 07:16:00,
2013-04-19 02:21:00,40.0,24.7,30.24,WNW,298,7.0,12.0,54,0.00,,---,0.00,0.00,VWS V14.01,2013-04-19 07:21:00,
2013-04-19 02:26:00,40.1,24.8,30.23,WNW,290,8.0,12.0,54,0.00,,---,0.00,0.00,VWS V14.01,2013-04-19 07:26:00,
2013-04-19 02:31:00,40.1,24.8,30.23,NW,306,8.0,9.0,54,0.00,,---,0.00,0.00,VWS V14.01,2013-04-19 07:31:00,
2013-04-19 02:36:00,40.1,24.8,30.23,WNW,298,7.0,11.0,54,0.00,,---,0.00,0.00,VWS V14.01,2013-04-19 07:36:00,
2013-04-19 02:41:00,40.0,24.7,30.23,WNW,303,8.0,12.0,54,0.00,,---,0.00,0.00,VWS V14.01,2013-04-19 07:41:00,
2013-04-19 02:46:00,39.8,24.5,30.23,WNW,298,7.0,12.0,54,0.00,,---,0.00,0.00,VWS V14.01,2013-04-19 07:46:00,
2013-04-19 02:51:00,39.6,24.3,30.23,WNW,294,6.0,12.0,54,0.00,,---,0.00,0.00,VWS V14.01,2013-04-19 07:51:00,
2013-04-19 02:56:00,39.4,24.6,30.23,WNW,286,3.0,12.0,55,0.00,,---,0.00,0.00,VWS V14.01,2013-04-19 07:56:00,
2013-04-19 03:01:00,39.1,24.7,30.23,West,280,5.0,5.0,56,0.00,,---,0.00,0.00,VWS V14.01,2013-04-19 08:01:00,
2013-04-19 03:06:00,38.5,24.6,30.23,West,280,4.0,6.0,57,0.00,,---,0.00,0.00,VWS V14.01,2013-04-19 08:06:00,
2013-04-19 03:11:00,38.1,24.6,30.23,West,280,4.0,7.0,58,0.00,,---,0.00,0.00,VWS V14.01,2013-04-19 08:11:00,
2013-04-19 03:16:00,37.7,24.7,30.23,West,280,6.0,7.0,59,0.00,,---,0.00,0.00,VWS V14.01,2013-04-19 08:16:00,
2013-04-19 03:21:00,37.5,24.9,30.24,West,279,5.0,9.0,60,0.00,,---,0.00,0.00,VWS V14.01,2013-04-19 08:21:00,
2013-04-19 03:26:00,37.3,24.7,30.24,West,278,4.0,9.0,60,0.00,,---,0.00,0.00,VWS V14.01,2013-04-19 08:26:00,
2013-04-19 03:31:00,37.1,24.1,30.24,West,267,4.0,5.0,59,0.00,,---,0.00,0.00,VWS V14.01,2013-04-19 08:31:00,
2013-04-19 03:36:00,36.9,23.9,30.24,West,267,3.0,10.0,59,0.00,,---,0.00,0.00,VWS V14.01,2013-04-19 08:36:00,
2013-04-19 03:41:00,36.8,23.8,30.24,West,276,3.0,10.0,59,0.00,,---,0.00,0.00,VWS V14.01,2013-04-19 08:41:00,
2013-04-19 03:46:00,36.6,23.6,30.24,West,271,4.0,11.0,59,0.00,,---,0.00,0.00,VWS V14.01,2013-04-19 08:46:00,
2013-04-19 03:51:00,36.3,23.8,30.24,West,269,5.0,11.0,60,0.00,,---,0.00,0.00,VWS V14.01,2013-04-19 08:51:00,
2013-04-19 03:56:00,36.0,23.9,30.24,West,269,4.0,11.0,61,0.00,,---,0.00,0.00,VWS V14.01,2013-04-19 08:56:00,
2013-04-19 04:01:00,35.8,24.1,30.25,West,275,3.0,4.0,62,0.00,,---,0.00,0.00,VWS V14.01,2013-04-19 09:01:00,
2013-04-19 04:06:00,35.6,23.9,30.25,West,265,3.0,8.0,62,0.00,,---,0.00,0.00,VWS V14.01,2013-04-19 09:06:00,
2013-04-19 04:11:00,35.3,24.0,30.25,West,260,4.0,9.0,63,0.00,,---,0.00,0.00,VWS V14.01,2013-04-19 09:11:00,
2013-04-19 04:16:00,35.1,24.2,30.26,West,274,4.0,11.0,64,0.00,,---,0.00,0.00,VWS V14.01,2013-04-19 09:16:00,
2013-04-19 04:21:00,34.8,23.9,30.26,West,279,3.0,11.0,64,0.00,,---,0.00,0.00,VWS V14.01,2013-04-19 09:21:00,
2013-04-19 04:26:00,34.6,24.1,30.26,West,281,4.0,11.0,65,0.00,,---,0.00,0.00,VWS V14.01,2013-04-19 09:26:00,
2013-04-19 04:31:00,34.1,24.0,30.26,WNW,282,4.0,5.0,66,0.00,,---,0.00,0.00,VWS V14.01,2013-04-19 09:31:00,
2013-04-19 04:36:00,33.8,24.0,30.26,WNW,283,4.0,6.0,67,0.00,,---,0.00,0.00,VWS V14.01,2013-04-19 09:36:00,
2013-04-19 04:41:00,33.5,24.1,30.26,WNW,283,2.0,6.0,68,0.00,,---,0.00,0.00,VWS V14.01,2013-04-19 09:41:00,
2013-04-19 04:46:00,33.3,23.9,30.26,WNW,284,4.0,6.0,68,0.00,,---,0.00,0.00,VWS V14.01,2013-04-19 09:46:00,
2013-04-19 04:51:00,33.3,23.9,30.26,WNW,286,3.0,7.0,68,0.00,,---,0.00,0.00,VWS V14.01,2013-04-19 09:51:00,
2013-04-19 04:56:00,33.6,23.8,30.26,WNW,292,5.0,9.0,67,0.00,,---,0.00,0.00,VWS V14.01,2013-04-19 09:56:00,
2013-04-19 05:01:00,34.1,24.0,30.26,WNW,299,8.0,10.0,66,0.00,,---,0.00,0.00,VWS V14.01,2013-04-19 10:01:00,
2013-04-19 05:06:00,34.6,23.7,30.26,WNW,300,4.0,10.0,64,0.00,,---,0.00,0.00,VWS V14.01,2013-04-19 10:06:00,
2013-04-19 05:11:00,34.7,23.8,30.26,WNW,301,5.0,10.0,64,0.00,,---,0.00,0.00,VWS V14.01,2013-04-19 10:11:00,
2013-04-19 05:16:00,34.6,23.7,30.26,WNW,298,4.0,10.0,64,0.00,,---,0.00,0.00,VWS V14.01,2013-04-19 10:16:00,
2013-04-19 05:21:00,34.2,23.7,30.26,WNW,298,3.0,10.0,65,0.00,,---,0.00,0.00,VWS V14.01,2013-04-19 10:21:00,
2013-04-19 05:26:00,33.9,23.4,30.26,WNW,298,4.0,10.0,65,0.00,,---,0.00,0.00,VWS V14.01,2013-04-19 10:26:00,
2013-04-19 05:31:00,33.5,23.4,30.26,WNW,298,3.0,4.0,66,0.00,,---,0.00,0.00,VWS V14.01,2013-04-19 10:31:00,
2013-04-19 05:36:00,33.2,23.5,30.26,WNW,298,1.0,4.0,67,0.00,,---,0.00,0.00,VWS V14.01,2013-04-19 10:36:00,
2013-04-19 05:41:00,32.9,23.5,30.26,WNW,298,4.0,5.0,68,0.00,,---,0.00,0.00,VWS V14.01,2013-04-19 10:41:00,
2013-04-19 05:46:00,32.6,23.6,30.26,WNW,298,4.0,5.0,69,0.00,,---,0.00,0.00,VWS V14.01,2013-04-19 10:46:00,
2013-04-19 05:51:00,32.3,23.3,30.26,WNW,298,2.0,5.0,69,0.00,,---,0.00,0.00,VWS V14.01,2013-04-19 10:51:00,
2013-04-19 05:56:00,32.0,23.3,30.26,WNW,298,2.0,5.0,70,0.00,,---,0.00,0.00,VWS V14.01,2013-04-19 10:56:00,
2013-04-19 06:01:00,31.9,23.2,30.27,WNW,298,3.0,3.0,70,0.00,,---,0.00,0.00,VWS V14.01,2013-04-19 11:01:00,
2013-04-19 06:06:00,31.9,23.6,30.27,WNW,298,1.0,5.0,71,0.00,,---,0.00,0.00,VWS V14.01,2013-04-19 11:06:00,
2013-04-19 06:11:00,31.9,23.6,30.27,WNW,298,3.0,6.0,71,0.00,,---,0.00,0.00,VWS V14.01,2013-04-19 11:11:00,
2013-04-19 06:16:00,31.9,23.2,30.27,WNW,298,3.0,6.0,70,0.00,,---,0.00,0.00,VWS V14.01,2013-04-19 11:16:00,
2013-04-19 06:21:00,31.9,23.2,30.27,WNW,298,3.0,6.0,70,0.00,,---,0.00,0.00,VWS V14.01,2013-04-19 11:21:00,
2013-04-19 06:26:00,31.7,23.4,30.28,WNW,298,4.0,6.0,71,0.00,,---,0.00,0.00,VWS V14.01,2013-04-19 11:26:00,
2013-04-19 06:31:00,31.5,23.2,30.28,WNW,298,2.0,3.0,71,0.00,,---,0.00,0.00,VWS V14.01,2013-04-19 11:31:00,
2013-04-19 06:36:00,31.3,23.0,30.28,WNW,298,2.0,5.0,71,0.00,,---,0.00,0.00,VWS V14.01,2013-04-19 11:36:00,
2013-04-19 06:41:00,31.3,23.0,30.28,WNW,298,3.0,5.0,71,0.00,,---,0.00,0.00,VWS V14.01,2013-04-19 11:41:00,
2013-04-19 06:46:00,31.2,22.9,30.28,WNW,298,3.0,5.0,71,0.00,,---,0.00,0.00,VWS V14.01,2013-04-19 11:46:00,
2013-04-19 06:51:00,31.2,22.9,30.28,WNW,298,4.0,5.0,71,0.00,,---,0.00,0.00,VWS V14.01,2013-04-19 11:51:00,
2013-04-19 06:56:00,31.2,22.9,30.28,WNW,298,2.0,6.0,71,0.00,,---,0.00,0.00,VWS V14.01,2013-04-19 11:56:00,
2013-04-19 07:01:00,31.3,22.7,30.29,WNW,298,3.0,3.0,70,0.00,,---,0.00,5.00,VWS V14.01,2013-04-19 12:01:00,
2013-04-19 07:06:00,31.5,22.9,30.29,WNW,298,3.0,5.0,70,0.00,,---,0.00,9.00,VWS V14.01,2013-04-19 12:06:00,
2013-04-19 07:11:00,31.7,22.7,30.29,WNW,298,3.0,5.0,69,0.00,,---,0.00,12.00,VWS V14.01,2013-04-19 12:11:00,
2013-04-19 07:16:00,31.9,22.5,30.29,WNW,298,3.0,6.0,68,0.00,,---,0.00,14.00,VWS V14.01,2013-04-19 12:16:00,
2013-04-19 07:21:00,32.1,22.8,30.30,WNW,298,2.0,6.0,68,0.00,,---,0.00,19.00,VWS V14.01,2013-04-19 12:21:00,
2013-04-19 07:26:00,32.2,22.8,30.30,WNW,297,3.0,7.0,68,0.00,,---,0.00,26.00,VWS V14.01,2013-04-19 12:26:00,
2013-04-19 07:31:00,32.4,22.7,30.30,WNW,296,3.0,7.0,67,0.00,,---,0.00,37.00,VWS V14.01,2013-04-19 12:31:00,
2013-04-19 07:36:00,32.6,22.9,30.30,WNW,296,2.0,5.0,67,0.00,,---,0.00,51.00,VWS V14.01,2013-04-19 12:36:00,
2013-04-19 07:41:00,32.8,23.1,30.30,WNW,296,2.0,5.0,67,0.00,,---,0.00,67.00,VWS V14.01,2013-04-19 12:41:00,
2013-04-19 07:46:00,33.0,24.0,30.31,WNW,296,3.0,5.0,69,0.00,,---,0.00,83.00,VWS V14.01,2013-04-19 12:46:00,
2013-04-19 07:51:00,33.1,24.4,30.31,WNW,296,3.0,5.0,70,0.00,,---,0.00,100.00,VWS V14.01,2013-04-19 12:51:00,
2013-04-19 07:56:00,33.3,24.6,30.31,WNW,296,4.0,5.0,70,0.00,,---,0.00,121.00,VWS V14.01,2013-04-19 12:56:00,
2013-04-19 08:01:00,33.6,24.9,30.32,WNW,296,4.0,5.0,70,0.00,,---,0.00,142.00,VWS V14.01,2013-04-19 13:01:00,
2013-04-19 08:06:00,34.1,25.4,30.32,WNW,295,5.0,5.0,70,0.00,,---,0.00,165.00,VWS V14.01,2013-04-19 13:06:00,
2013-04-19 08:11:00,34.7,25.6,30.32,WNW,291,4.0,6.0,69,0.00,,---,0.00,190.00,VWS V14.01,2013-04-19 13:11:00,
2013-04-19 08:16:00,35.6,25.7,30.32,WNW,290,3.0,6.0,67,0.00,,---,0.00,213.00,VWS V14.01,2013-04-19 13:16:00,
2013-04-19 08:21:00,36.5,25.5,30.32,West,267,3.0,7.0,64,0.00,,---,0.00,230.00,VWS V14.01,2013-04-19 13:21:00,
2013-04-19 08:26:00,37.3,25.1,30.32,West,267,5.0,8.0,61,0.00,,---,0.00,251.00,VWS V14.01,2013-04-19 13:26:00,
2013-04-19 08:31:00,38.3,25.6,30.33,West,262,5.0,9.0,60,0.00,,---,0.00,272.00,VWS V14.01,2013-04-19 13:31:00,
2013-04-19 08:36:00,39.0,24.2,30.32,West,264,6.0,11.0,55,0.00,,---,0.00,292.00,VWS V14.01,2013-04-19 13:36:00,
2013-04-19 08:41:00,39.4,24.6,30.32,WSW,257,3.0,11.0,55,0.00,,---,0.00,311.00,VWS V14.01,2013-04-19 13:41:00,
2013-04-19 08:46:00,39.8,24.5,30.32,West,273,5.0,11.0,54,0.00,,---,0.00,330.00,VWS V14.01,2013-04-19 13:46:00,
2013-04-19 08:51:00,40.5,24.7,30.33,WSW,248,8.0,11.0,53,0.00,,---,0.00,346.00,VWS V14.01,2013-04-19 13:51:00,
2013-04-19 08:56:00,41.1,25.3,30.32,West,269,9.0,12.0,53,0.00,,---,0.00,364.00,VWS V14.01,2013-04-19 13:56:00,
2013-04-19 09:01:00,41.4,24.2,30.33,WSW,251,8.0,12.0,50,0.00,,---,0.00,383.00,VWS V14.01,2013-04-19 14:01:00,
2013-04-19 09:06:00,41.7,24.5,30.33,WSW,254,13.0,13.0,50,0.00,,---,0.00,403.00,VWS V14.01,2013-04-19 14:06:00,
2013-04-19 09:11:00,42.0,24.2,30.32,West,269,5.0,13.0,49,0.00,,---,0.00,420.00,VWS V14.01,2013-04-19 14:11:00,
2013-04-19 09:16:00,42.7,24.9,30.32,West,261,5.0,13.0,49,0.00,,---,0.00,438.00,VWS V14.01,2013-04-19 14:16:00,
2013-04-19 09:21:00,43.3,24.4,30.33,WSW,254,6.0,13.0,47,0.00,,---,0.00,454.00,VWS V14.01,2013-04-19 14:21:00,
2013-04-19 09:26:00,44.0,24.6,30.32,WNW,291,7.0,13.0,46,0.00,,---,0.00,473.00,VWS V14.01,2013-04-19 14:26:00,
2013-04-19 09:31:00,44.5,24.5,30.32,West,277,4.0,13.0,45,0.00,,---,0.00,490.00,VWS V14.01,2013-04-19 14:31:00,
2013-04-19 09:36:00,45.0,25.0,30.32,West,271,4.0,11.0,45,0.00,,---,0.00,508.00,VWS V14.01,2013-04-19 14:36:00,
2013-04-19 09:41:00,45.0,24.4,30.32,WSW,257,4.0,11.0,44,0.00,,---,0.00,527.00,VWS V14.01,2013-04-19 14:41:00,
2013-04-19 09:46:00,45.4,24.8,30.32,West,259,7.0,11.0,44,0.00,,---,0.00,543.00,VWS V14.01,2013-04-19 14:46:00,
2013-04-19 09:51:00,45.8,25.7,30.32,West,269,7.0,11.0,45,0.00,,---,0.00,561.00,VWS V14.01,2013-04-19 14:51:00,
2013-04-19 09:56:00,46.4,24.0,30.32,WSW,257,4.0,11.0,41,0.00,,---,0.00,575.00,VWS V14.01,2013-04-19 14:56:00,
2013-04-19 10:01:00,47.5,24.4,30.32,West,265,0.0,11.0,40,0.00,,---,0.00,592.00,VWS V14.01,2013-04-19 15:01:00,
2013-04-19 10:06:00,48.2,24.4,30.32,WNW,292,5.0,13.0,39,0.00,,---,0.00,610.00,VWS V14.01,2013-04-19 15:06:00,
2013-04-19 10:11:00,48.4,24.6,30.32,WNW,293,4.0,13.0,39,0.00,,---,0.00,628.00,VWS V14.01,2013-04-19 15:11:00,
2013-04-19 10:16:00,48.6,25.4,30.32,WNW,284,6.0,13.0,40,0.00,,---,0.00,645.00,VWS V14.01,2013-04-19 15:16:00,
2013-04-19 10:21:00,48.8,25.0,30.32,NW,304,3.0,13.0,39,0.00,,---,0.00,663.00,VWS V14.01,2013-04-19 15:21:00,
2013-04-19 10:26:00,49.2,24.7,30.32,West,262,7.0,13.0,38,0.00,,---,0.00,675.00,VWS V14.01,2013-04-19 15:26:00,
2013-04-19 10:31:00,49.2,25.9,30.32,West,277,6.0,13.0,40,0.00,,---,0.00,689.00,VWS V14.01,2013-04-19 15:31:00,
2013-04-19 10:36:00,49.3,26.6,30.32,West,264,9.0,9.0,41,0.00,,---,0.00,705.00,VWS V14.01,2013-04-19 15:36:00,
2013-04-19 10:41:00,49.8,27.1,30.32,SW,223,5.0,13.0,41,0.00,,---,0.00,719.00,VWS V14.01,2013-04-19 15:41:00,
2013-04-19 10:46:00,50.3,26.3,30.32,WNW,289,3.0,13.0,39,0.00,,---,0.00,733.00,VWS V14.01,2013-04-19 15:46:00,
2013-04-19 10:51:00,50.2,26.8,30.32,WNW,285,7.0,13.0,40,0.00,,---,0.00,747.00,VWS V14.01,2013-04-19 15:51:00,
2013-04-19 10:56:00,51.2,27.1,30.32,West,263,6.0,13.0,39,0.00,,---,0.00,759.00,VWS V14.01,2013-04-19 15:56:00,
2013-04-19 11:01:00,51.6,26.2,30.31,SW,234,2.0,13.0,37,0.00,,---,0.00,772.00,VWS V14.01,2013-04-19 16:01:00,
2013-04-19 11:06:00,51.4,27.3,30.31,West,269,7.0,11.0,39,0.00,,---,0.00,782.00,VWS V14.01,2013-04-19 16:06:00,
2013-04-19 11:11:00,51.7,26.9,30.31,SW,232,1.0,11.0,38,0.00,,---,0.00,796.00,VWS V14.01,2013-04-19 16:11:00,
2013-04-19 11:15:00,52.3,24.8,30.31,WNW,282,1.0,11.0,34,0.00,,---,0.00,812.00,VWS V14.01,2013-04-19 16:15:00,
2013-04-19 11:20:00,53.6,25.9,30.31,WNW,300,8.0,11.0,34,0.00,,---,0.00,823.00,VWS V14.01,2013-04-19 16:20:00,
2013-04-19 11:25:00,53.7,26.0,30.31,West,280,1.0,13.0,34,0.00,,---,0.00,838.00,VWS V14.01,2013-04-19 16:25:00,
2013-04-19 11:30:00,54.1,25.6,30.30,WNW,282,2.0,13.0,33,0.00,,---,0.00,849.00,VWS V14.01,2013-04-19 16:30:00,
2013-04-19 11:35:00,53.6,25.2,30.30,WSW,246,3.0,7.0,33,0.00,,---,0.00,858.00,VWS V14.01,2013-04-19 16:35:00,
2013-04-19 11:40:00,54.4,25.2,30.30,WNW,299,6.0,10.0,32,0.00,,---,0.00,868.00,VWS V14.01,2013-04-19 16:40:00,
2013-04-19 11:45:00,54.5,25.3,30.30,WNW,299,6.0,10.0,32,0.00,,---,0.00,879.00,VWS V14.01,2013-04-19 16:45:00,
2013-04-19 11:50:00,55.4,26.8,30.30,West,259,10.0,14.0,33,0.00,,---,0.00,889.00,VWS V14.01,2013-04-19 16:50:00,
2013-04-19 11:55:00,55.0,24.9,30.30,West,276,6.0,14.0,31,0.00,,---,0.00,898.00,VWS V14.01,2013-04-19 16:55:00,
2013-04-19 12:00:00,55.1,25.8,30.29,WSW,251,0.0,14.0,32,0.00,,---,0.00,907.00,VWS V14.01,2013-04-19 17:00:00,
2013-04-19 12:05:00,55.7,27.1,30.29,WSW,242,1.0,10.0,33,0.00,,---,0.00,916.00,VWS V14.01,2013-04-19 17:05:00,
2013-04-19 12:10:00,55.5,26.1,30.29,WSW,252,0.0,10.0,32,0.00,,---,0.00,923.00,VWS V14.01,2013-04-19 17:10:00,
2013-04-19 12:15:00,56.0,25.0,30.29,WSW,244,1.0,11.0,30,0.00,,---,0.00,932.00,VWS V14.01,2013-04-19 17:15:00,
2013-04-19 12:20:00,56.2,25.2,30.28,SW,215,7.0,16.0,30,0.00,,---,0.00,940.00,VWS V14.01,2013-04-19 17:20:00,
2013-04-19 12:25:00,56.5,27.0,30.28,SW,229,0.0,16.0,32,0.00,,---,0.00,947.00,VWS V14.01,2013-04-19 17:25:00,
2013-04-19 12:30:00,57.0,25.9,30.28,West,263,0.0,16.0,30,0.00,,---,0.00,954.00,VWS V14.01,2013-04-19 17:30:00,
2013-04-19 12:35:00,57.2,25.2,30.28,West,264,9.0,13.0,29,0.00,,---,0.00,960.00,VWS V14.01,2013-04-19 17:35:00,
2013-04-19 12:40:00,57.9,26.7,30.27,WSW,241,1.0,13.0,30,0.00,,---,0.00,965.00,VWS V14.01,2013-04-19 17:40:00,
2013-04-19 12:45:00,58.2,27.7,30.27,West,276,7.0,13.0,31,0.00,,---,0.00,969.00,VWS V14.01,2013-04-19 17:45:00,
2013-04-19 12:50:00,58.0,25.1,30.26,West,269,5.0,13.0,28,0.00,,---,0.00,972.00,VWS V14.01,2013-04-19 17:50:00,
2013-04-19 12:55:00,58.8,26.6,30.26,SSW,202,8.0,13.0,29,0.00,,---,0.00,977.00,VWS V14.01,2013-04-19 17:55:00,
2013-04-19 13:00:00,59.2,26.1,30.26,WSW,254,3.0,13.0,28,0.00,,---,0.00,979.00,VWS V14.01,2013-04-19 18:00:00,
2013-04-19 13:05:00,59.6,25.6,30.26,West,265,0.0,12.0,27,0.00,,---,0.00,983.00,VWS V14.01,2013-04-19 18:05:00,
2013-04-19 13:10:00,60.0,26.0,30.25,West,273,1.0,12.0,27,0.00,,---,0.00,990.00,VWS V14.01,2013-04-19 18:10:00,
2013-04-19 13:15:00,60.3,27.1,30.25,West,263,9.0,12.0,28,0.00,,---,0.00,990.00,VWS V14.01,2013-04-19 18:15:00,
2013-04-19 13:20:00,60.6,25.5,30.25,WSW,257,12.0,16.0,26,0.00,,---,0.00,993.00,VWS V14.01,2013-04-19 18:20:00,
2013-04-19 13:25:00,60.1,25.1,30.24,West,281,7.0,16.0,26,0.00,,---,0.00,991.00,VWS V14.01,2013-04-19 18:25:00,
2013-04-19 13:30:00,60.4,28.0,30.24,SW,221,2.0,16.0,29,0.00,,---,0.00,995.00,VWS V14.01,2013-04-19 18:30:00,
2013-04-19 13:35:00,60.6,25.5,30.24,SW,216,4.0,16.0,26,0.00,,---,0.00,993.00,VWS V14.01,2013-04-19 18:35:00,
2013-04-19 13:40:00,60.6,24.6,30.23,SW,232,0.0,16.0,25,0.00,,---,0.00,990.00,VWS V14.01,2013-04-19 18:40:00,
2013-04-19 13:45:00,61.0,26.8,30.23,SSW,213,15.0,16.0,27,0.00,,---,0.00,991.00,VWS V14.01,2013-04-19 18:45:00,
2013-04-19 13:50:00,60.3,25.3,30.22,SW,219,0.0,17.0,26,0.00,,---,0.00,990.00,VWS V14.01,2013-04-19 18:50:00,
2013-04-19 13:55:00,61.6,26.4,30.22,WSW,246,11.0,17.0,26,0.00,,---,0.00,988.00,VWS V14.01,2013-04-19 18:55:00,
2013-04-19 14:00:00,62.0,25.8,30.22,West,280,8.0,17.0,25,0.00,,---,0.00,990.00,VWS V14.01,2013-04-19 19:00:00,
2013-04-19 14:05:00,62.0,25.8,30.21,SSW,213,8.0,14.0,25,0.00,,---,0.00,984.00,VWS V14.01,2013-04-19 19:05:00,
2013-04-19 14:10:00,62.3,27.0,30.21,WSW,242,7.0,14.0,26,0.00,,---,0.00,984.00,VWS V14.01,2013-04-19 19:10:00,
2013-04-19 14:15:00,62.3,26.1,30.20,SW,217,1.0,14.0,25,0.00,,---,0.00,979.00,VWS V14.01,2013-04-19 19:15:00,
2013-04-19 14:20:00,63.1,24.7,30.20,West,281,6.0,18.0,23,0.00,,---,0.00,977.00,VWS V14.01,2013-04-19 19:20:00,
2013-04-19 14:25:00,63.1,23.7,30.20,NW,310,0.0,18.0,22,0.00,,---,0.00,976.00,VWS V14.01,2013-04-19 19:25:00,
2013-04-19 14:30:00,63.4,25.0,30.20,WSW,254,7.0,18.0,23,0.00,,---,0.00,967.00,VWS V14.01,2013-04-19 19:30:00,
2013-04-19 14:35:00,64.3,27.8,30.19,WSW,248,1.0,9.0,25,0.00,,---,0.00,962.00,VWS V14.01,2013-04-19 19:35:00,
2013-04-19 14:40:00,64.3,25.7,30.19,WSW,254,9.0,16.0,23,0.00,,---,0.00,958.00,VWS V14.01,2013-04-19 19:40:00,
2013-04-19 14:45:00,64.4,26.9,30.19,SSW,208,7.0,16.0,24,0.00,,---,0.00,949.00,VWS V14.01,2013-04-19 19:45:00,
2013-04-19 14:50:00,64.3,24.7,30.19,WSW,251,1.0,16.0,22,0.00,,---,0.00,942.00,VWS V14.01,2013-04-19 19:50:00,
2013-04-19 14:55:00,64.1,25.6,30.18,West,271,3.0,16.0,23,0.00,,---,0.00,942.00,VWS V14.01,2013-04-19 19:55:00,
2013-04-19 15:00:00,64.6,26.0,30.18,SW,229,3.0,16.0,23,0.00,,---,0.00,933.00,VWS V14.01,2013-04-19 20:00:00,
2013-04-19 15:05:00,64.9,27.3,30.18,SW,220,2.0,14.0,24,0.00,,---,0.00,933.00,VWS V14.01,2013-04-19 20:05:00,
2013-04-19 15:10:00,66.0,25.0,30.18,WSW,249,12.0,15.0,21,0.00,,---,0.00,921.00,VWS V14.01,2013-04-19 20:10:00,
2013-04-19 15:15:00,65.2,25.4,30.17,WSW,240,1.0,15.0,22,0.00,,---,0.00,911.00,VWS V14.01,2013-04-19 20:15:00,
2013-04-19 15:20:00,65.5,24.6,30.17,WSW,242,5.0,15.0,21,0.00,,---,0.00,907.00,VWS V14.01,2013-04-19 20:20:00,
2013-04-19 15:25:00,65.6,23.5,30.17,WSW,252,12.0,16.0,20,0.00,,---,0.00,898.00,VWS V14.01,2013-04-19 20:25:00,
2013-04-19 15:30:00,66.3,26.4,30.16,SW,226,13.0,16.0,22,0.00,,---,0.00,889.00,VWS V14.01,2013-04-19 20:30:00,
2013-04-19 15:35:00,65.4,22.1,30.16,WSW,251,3.0,10.0,19,0.00,,---,0.00,879.00,VWS V14.01,2013-04-19 20:35:00,
2013-04-19 15:40:00,65.1,23.1,30.16,West,259,6.0,12.0,20,0.00,,---,0.00,867.00,VWS V14.01,2013-04-19 20:40:00,
2013-04-19 15:45:00,65.3,23.2,30.15,SW,225,2.0,12.0,20,0.00,,---,0.00,856.00,VWS V14.01,2013-04-19 20:45:00,
2013-04-19 15:50:00,65.7,26.9,30.15,West,275,2.0,12.0,23,0.00,,---,0.00,846.00,VWS V14.01,2013-04-19 20:50:00,
2013-04-19 15:55:00,66.5,24.2,30.15,West,278,2.0,17.0,20,0.00,,---,0.00,837.00,VWS V14.01,2013-04-19 20:55:00,
2013-04-19 16:00:00,67.0,24.6,30.14,NW,323,6.0,17.0,20,0.00,,---,0.00,824.00,VWS V14.01,2013-04-19 21:00:00,
2013-04-19 16:05:00,66.5,21.7,30.14,WNW,298,0.0,10.0,18,0.00,,---,0.00,807.00,VWS V14.01,2013-04-19 21:05:00,
2013-04-19 16:10:00,66.8,23.2,30.14,WSW,244,1.0,16.0,19,0.00,,---,0.00,798.00,VWS V14.01,2013-04-19 21:10:00,
2013-04-19 16:15:00,67.2,23.6,30.13,West,271,6.0,16.0,19,0.00,,---,0.00,788.00,VWS V14.01,2013-04-19 21:15:00,
2013-04-19 16:20:00,67.5,22.5,30.13,West,261,11.0,16.0,18,0.00,,---,0.00,775.00,VWS V14.01,2013-04-19 21:20:00,
2013-04-19 16:25:00,67.6,23.9,30.12,WSW,255,10.0,16.0,19,0.00,,---,0.00,758.00,VWS V14.01,2013-04-19 21:25:00,
2013-04-19 16:30:00,67.5,22.5,30.12,WSW,257,9.0,16.0,18,0.00,,---,0.00,742.00,VWS V14.01,2013-04-19 21:30:00,
2013-04-19 16:35:00,67.0,22.1,30.12,WSW,246,6.0,16.0,18,0.00,,---,0.00,728.00,VWS V14.01,2013-04-19 21:35:00,
2013-04-19 16:40:00,66.7,21.9,30.11,WSW,252,8.0,16.0,18,0.00,,---,0.00,710.00,VWS V14.01,2013-04-19 21:40:00,
2013-04-19 16:45:00,67.2,20.9,30.11,WSW,242,0.0,16.0,17,0.00,,---,0.00,694.00,VWS V14.01,2013-04-19 21:45:00,
2013-04-19 16:50:00,67.7,22.7,30.11,SW,221,9.0,16.0,18,0.00,,---,0.00,677.00,VWS V14.01,2013-04-19 21:50:00,
2013-04-19 16:55:00,67.5,22.5,30.11,SW,219,7.0,16.0,18,0.00,,---,0.00,661.00,VWS V14.01,2013-04-19 21:55:00,
2013-04-19 17:00:00,67.8,22.8,30.11,West,259,2.0,16.0,18,0.00,,---,0.00,650.00,VWS V14.01,2013-04-19 22:00:00,
2013-04-19 17:05:00,67.9,22.9,30.11,WSW,249,8.0,10.0,18,0.00,,---,0.00,631.00,VWS V14.01,2013-04-19 22:05:00,
2013-04-19 17:10:00,67.7,25.2,30.10,West,260,7.0,12.0,20,0.00,,---,0.00,612.00,VWS V14.01,2013-04-19 22:10:00,
2013-04-19 17:15:00,68.1,23.0,30.10,SW,220,2.0,12.0,18,0.00,,---,0.00,598.00,VWS V14.01,2013-04-19 22:15:00,
2013-04-19 17:20:00,68.0,21.6,30.10,West,261,4.0,12.0,17,0.00,,---,0.00,578.00,VWS V14.01,2013-04-19 22:20:00,
2013-04-19 17:25:00,68.0,24.2,30.10,WSW,248,8.0,13.0,19,0.00,,---,0.00,559.00,VWS V14.01,2013-04-19 22:25:00,
2013-04-19 17:30:00,68.1,21.7,30.09,WSW,257,4.0,13.0,17,0.00,,---,0.00,540.00,VWS V14.01,2013-04-19 22:30:00,
2013-04-19 17:35:00,67.9,22.9,30.10,SW,232,5.0,13.0,18,0.00,,---,0.00,527.00,VWS V14.01,2013-04-19 22:35:00,
2013-04-19 17:40:00,68.0,25.5,30.09,West,265,1.0,13.0,20,0.00,,---,0.00,506.00,VWS V14.01,2013-04-19 22:40:00,
2013-04-19 17:45:00,67.6,21.3,30.09,SW,228,1.0,13.0,17,0.00,,---,0.00,492.00,VWS V14.01,2013-04-19 22:45:00,
2013-04-19 17:50:00,67.6,21.3,30.09,SW,229,0.0,13.0,17,0.00,,---,0.00,471.00,VWS V14.01,2013-04-19 22:50:00,
2013-04-19 17:55:00,67.9,24.1,30.09,SW,229,2.0,13.0,19,0.00,,---,0.00,450.00,VWS V14.01,2013-04-19 22:55:00,
2013-04-19 18:00:00,68.0,24.2,30.09,SW,234,8.0,13.0,19,0.00,,---,0.00,434.00,VWS V14.01,2013-04-19 23:00:00,
2013-04-19 18:05:00,67.6,21.3,30.08,SW,233,1.0,7.0,17,0.00,,---,0.00,417.00,VWS V14.01,2013-04-19 23:05:00,
2013-04-19 18:10:00,67.9,24.1,30.09,WSW,248,6.0,8.0,19,0.00,,---,0.00,397.00,VWS V14.01,2013-04-19 23:10:00,
2013-04-19 18:15:00,67.8,21.4,30.09,WSW,238,2.0,15.0,17,0.00,,---,0.00,378.00,VWS V14.01,2013-04-19 23:15:00,
2013-04-19 18:20:00,67.7,22.7,30.08,WSW,252,2.0,15.0,18,0.00,,---,0.00,359.00,VWS V14.01,2013-04-19 23:20:00,
2013-04-19 18:25:00,67.8,22.8,30.08,SSW,213,3.0,15.0,18,0.00,,---,0.00,338.00,VWS V14.01,2013-04-19 23:25:00,
2013-04-19 18:30:00,67.7,24.0,30.08,SW,224,10.0,15.0,19,0.00,,---,0.00,316.00,VWS V14.01,2013-04-19 23:30:00,
2013-04-19 18:35:00,67.5,23.8,30.08,SSW,210,5.0,9.0,19,0.00,,---,0.00,297.00,VWS V14.01,2013-04-19 23:35:00,
2013-04-19 18:40:00,67.3,22.4,30.08,SSW,205,1.0,9.0,18,0.00,,---,0.00,281.00,VWS V14.01,2013-04-19 23:40:00,
2013-04-19 18:45:00,67.3,22.4,30.08,SSW,202,1.0,9.0,18,0.00,,---,0.00,258.00,VWS V14.01,2013-04-19 23:45:00,
2013-04-19 18:50:00,67.2,22.3,30.08,SSW,209,1.0,9.0,18,0.00,,---,0.00,236.00,VWS V14.01,2013-04-19 23:50:00,
2013-04-19 18:55:00,67.1,20.9,30.08,SW,219,1.0,9.0,17,0.00,,---,0.00,214.00,VWS V14.01,2013-04-19 23:55:00,
2013-04-19 19:00:00,67.1,22.2,30.08,SW,219,1.0,9.0,18,0.00,,---,0.00,193.00,VWS V14.01,2013-04-20 00:00:00,
2013-04-19 19:05:00,67.0,22.1,30.07,SW,219,0.0,1.0,18,0.00,,---,0.00,171.00,VWS V14.01,2013-04-20 00:05:00,
2013-04-19 19:10:00,66.9,22.0,30.07,SW,219,0.0,1.0,18,0.00,,---,0.00,153.00,VWS V14.01,2013-04-20 00:10:00,
2013-04-19 19:15:00,66.9,24.5,30.07,SW,219,0.0,1.0,20,0.00,,---,0.00,132.00,VWS V14.01,2013-04-20 00:15:00,
2013-04-19 19:20:00,66.6,25.5,30.07,SW,219,0.0,1.0,21,0.00,,---,0.00,111.00,VWS V14.01,2013-04-20 00:20:00,
2013-04-19 19:25:00,66.0,29.2,30.07,SW,219,0.0,1.0,25,0.00,,---,0.00,93.00,VWS V14.01,2013-04-20 00:25:00,
2013-04-19 19:30:00,65.5,30.7,30.07,SW,219,0.0,1.0,27,0.00,,---,0.00,76.00,VWS V14.01,2013-04-20 00:30:00,
2013-04-19 19:35:00,65.0,34.5,30.07,SW,219,0.0,0.0,32,0.00,,---,0.00,60.00,VWS V14.01,2013-04-20 00:35:00,
2013-04-19 19:40:00,64.4,33.1,30.07,SW,219,0.0,0.0,31,0.00,,---,0.00,49.00,VWS V14.01,2013-04-20 00:40:00,
2013-04-19 19:45:00,63.9,35.7,30.07,SW,219,0.0,0.0,35,0.00,,---,0.00,37.00,VWS V14.01,2013-04-20 00:45:00,
2013-04-19 19:50:00,63.0,37.7,30.07,SW,219,0.0,0.0,39,0.00,,---,0.00,26.00,VWS V14.01,2013-04-20 00:50:00,
2013-04-19 19:55:00,61.7,39.6,30.07,SW,219,0.0,0.0,44,0.00,,---,0.00,19.00,VWS V14.01,2013-04-20 00:55:00,
2013-04-19 20:00:00,60.3,41.1,30.07,SW,219,0.0,0.0,49,0.00,,---,0.00,14.00,VWS V14.01,2013-04-20 01:00:00,
2013-04-19 20:05:00,59.4,41.3,30.07,SW,219,0.0,0.0,51,0.00,,---,0.00,9.00,VWS V14.01,2013-04-20 01:05:00,
2013-04-19 20:10:00,58.0,42.4,30.07,SW,219,0.0,0.0,56,0.00,,---,0.00,5.00,VWS V14.01,2013-04-20 01:10:00,
2013-04-19 20:15:00,56.3,42.2,30.06,SW,219,0.0,0.0,59,0.00,,---,0.00,0.00,VWS V14.01,2013-04-20 01:15:00,
2013-04-19 20:20:00,55.2,42.0,30.06,SW,219,0.0,0.0,61,0.00,,---,0.00,0.00,VWS V14.01,2013-04-20 01:20:00,
2013-04-19 20:25:00,54.0,41.3,30.06,SW,219,0.0,0.0,62,0.00,,---,0.00,0.00,VWS V14.01,2013-04-20 01:25:00,
2013-04-19 20:30:00,52.9,41.5,30.06,SW,219,0.0,0.0,65,0.00,,---,0.00,0.00,VWS V14.01,2013-04-20 01:30:00,
2013-04-19 20:35:00,51.9,40.9,30.07,SW,219,0.0,0.0,66,0.00,,---,0.00,0.00,VWS V14.01,2013-04-20 01:35:00,
2013-04-19 20:40:00,51.2,39.8,30.07,SW,219,0.0,0.0,65,0.00,,---,0.00,0.00,VWS V14.01,2013-04-20 01:40:00,
2013-04-19 20:45:00,51.0,39.3,30.07,SW,219,0.0,0.0,64,0.00,,---,0.00,0.00,VWS V14.01,2013-04-20 01:45:00,
2013-04-19 20:50:00,50.7,39.4,30.07,SW,219,0.0,0.0,65,0.00,,---,0.00,0.00,VWS V14.01,2013-04-20 01:50:00,
2013-04-19 20:55:00,50.2,39.3,30.07,SW,219,0.0,0.0,66,0.00,,---,0.00,0.00,VWS V14.01,2013-04-20 01:55:00,
2013-04-19 21:00:00,49.9,39.4,30.07,SW,219,0.0,0.0,67,0.00,,---,0.00,0.00,VWS V14.01,2013-04-20 02:00:00,
2013-04-19 21:05:00,49.9,39.0,30.07,SW,219,0.0,0.0,66,0.00,,---,0.00,0.00,VWS V14.01,2013-04-20 02:05:00,
2013-04-19 21:10:00,49.7,38.4,30.07,SW,219,0.0,0.0,65,0.00,,---,0.00,0.00,VWS V14.01,2013-04-20 02:10:00,
2013-04-19 21:15:00,50.1,38.0,30.07,SW,219,0.0,0.0,63,0.00,,---,0.00,0.00,VWS V14.01,2013-04-20 02:15:00,
2013-04-19 21:20:00,50.3,37.8,30.07,SW,219,0.0,1.0,62,0.00,,---,0.00,0.00,VWS V14.01,2013-04-20 02:20:00,
2013-04-19 21:25:00,50.1,37.6,30.08,SW,219,0.0,1.0,62,0.00,,---,0.00,0.00,VWS V14.01,2013-04-20 02:25:00,
2013-04-19 21:30:00,50.1,37.2,30.08,SW,219,0.0,1.0,61,0.00,,---,0.00,0.00,VWS V14.01,2013-04-20 02:30:00,
2013-04-19 21:35:00,50.1,37.2,30.08,SW,219,0.0,0.0,61,0.00,,---,0.00,0.00,VWS V14.01,2013-04-20 02:35:00,
2013-04-19 21:40:00,50.0,37.1,30.08,SW,219,0.0,0.0,61,0.00,,---,0.00,0.00,VWS V14.01,2013-04-20 02:40:00,
2013-04-19 21:45:00,49.5,37.4,30.09,SW,219,0.0,0.0,63,0.00,,---,0.00,0.00,VWS V14.01,2013-04-20 02:45:00,
2013-04-19 21:50:00,49.0,37.4,30.09,SW,219,0.0,0.0,64,0.00,,---,0.00,0.00,VWS V14.01,2013-04-20 02:50:00,
2013-04-19 21:55:00,48.6,37.4,30.09,SW,219,0.0,0.0,65,0.00,,---,0.00,0.00,VWS V14.01,2013-04-20 02:55:00,
2013-04-19 22:00:00,48.6,37.4,30.09,SW,219,0.0,0.0,65,0.00,,---,0.00,0.00,VWS V14.01,2013-04-20 03:00:00,
2013-04-19 22:05:00,48.5,37.3,30.09,SW,219,0.0,0.0,65,0.00,,---,0.00,0.00,VWS V14.01,2013-04-20 03:05:00,
2013-04-19 22:10:00,48.3,37.5,30.09,SW,219,0.0,0.0,66,0.00,,---,0.00,0.00,VWS V14.01,2013-04-20 03:10:00,
2013-04-19 22:15:00,48.0,37.2,30.09,SW,219,0.0,0.0,66,0.00,,---,0.00,0.00,VWS V14.01,2013-04-20 03:15:00,
2013-04-19 22:20:00,48.0,37.2,30.09,SW,219,0.0,0.0,66,0.00,,---,0.00,0.00,VWS V14.01,2013-04-20 03:20:00,
2013-04-19 22:25:00,47.9,37.1,30.09,SW,219,0.0,0.0,66,0.00,,---,0.00,0.00,VWS V14.01,2013-04-20 03:25:00,
2013-04-19 22:30:00,48.1,36.5,30.09,SW,219,0.0,0.0,64,0.00,,---,0.00,0.00,VWS V14.01,2013-04-20 03:30:00,
2013-04-19 22:35:00,48.6,35.8,30.09,SW,219,0.0,0.0,61,0.00,,---,0.00,0.00,VWS V14.01,2013-04-20 03:35:00,
2013-04-19 22:40:00,48.9,35.6,30.09,SW,219,0.0,0.0,60,0.00,,---,0.00,0.00,VWS V14.01,2013-04-20 03:40:00,
2013-04-19 22:45:00,49.2,35.1,30.09,SW,219,0.0,0.0,58,0.00,,---,0.00,0.00,VWS V14.01,2013-04-20 03:45:00,
2013-04-19 22:50:00,49.5,34.9,30.09,SW,219,0.0,0.0,57,0.00,,---,0.00,0.00,VWS V14.01,2013-04-20 03:50:00,
2013-04-19 22:55:00,49.8,34.8,30.08,SW,218,0.0,0.0,56,0.00,,---,0.00,0.00,VWS V14.01,2013-04-20 03:55:00,
2013-04-19 23:00:00,50.1,34.1,30.08,SSW,207,0.0,0.0,54,0.00,,---,0.00,0.00,VWS V14.01,2013-04-20 04:00:00,
2013-04-19 23:01:00,50.2,34.2,30.08,SSW,207,0.0,0.0,54,0.00,,---,0.00,0.00,VWS V14.01,2013-04-20 04:01:00,
2013-04-19 23:06:00,50.3,33.8,30.08,SSW,205,0.0,0.0,53,0.00,,---,0.00,0.00,VWS V14.01,2013-04-20 04:06:00,
2013-04-19 23:11:00,50.4,33.5,30.08,SSW,194,0.0,4.0,52,0.00,,---,0.00,0.00,VWS V14.01,2013-04-20 04:11:00,
2013-04-19 23:16:00,50.6,33.2,30.08,South,172,1.0,7.0,51,0.00,,---,0.00,0.00,VWS V14.01,2013-04-20 04:16:00,
2013-04-19 23:21:00,51.0,32.5,30.08,SSE,153,5.0,7.0,49,0.00,,---,0.00,0.00,VWS V14.01,2013-04-20 04:21:00,
2013-04-19 23:26:00,51.0,32.5,30.08,SSE,148,3.0,7.0,49,0.00,,---,0.00,0.00,VWS V14.01,2013-04-20 04:26:00,
2013-04-19 23:31:00,50.9,32.4,30.08,SE,146,3.0,7.0,49,0.00,,---,0.00,0.00,VWS V14.01,2013-04-20 04:31:00,
2013-04-19 23:36:00,50.8,32.3,30.08,SE,142,3.0,7.0,49,0.00,,---,0.00,0.00,VWS V14.01,2013-04-20 04:36:00,
2013-04-19 23:41:00,50.5,32.1,30.08,SE,142,5.0,7.0,49,0.00,,---,0.00,0.00,VWS V14.01,2013-04-20 04:41:00,
2013-04-19 23:46:00,50.1,32.2,30.08,SE,141,3.0,7.0,50,0.00,,---,0.00,0.00,VWS V14.01,2013-04-20 04:46:00,
2013-04-19 23:51:00,50.0,32.1,30.08,SE,139,3.0,7.0,50,0.00,,---,0.00,0.00,VWS V14.01,2013-04-20 04:51:00,
2013-04-19 23:56:00,49.9,32.0,30.08,SE,138,4.0,7.0,50,0.00,,---,0.00,0.00,VWS V14.01,2013-04-20 04:56:00,